This demonstration page uses our WeatherBlox Daily Observations layout. Learn more.

39.01783, -85.05884

Hourly Observations for November 15, 2019

Temp ( °F °C ) Dew Point ( °F °C ) Humidity (%) Winds ( mph kmh ) Pressure ( in mb ) Visibility ( mi km ) Precip ( " mm )
12:52 am 00:52 Mostly Clear 28 -2.2 23 -5 81 81 VRB 3 6 30.32 1027 10 16.0934 0 0
1:52 am 01:52 Mostly Clear 28 -2.2 21 -6.1 75 75 VRB 3 6 30.32 1027 10 16.0934 0 0
2:52 am 02:52 Clear 28 -2.2 22 -5.6 78 78 NNW 5 7 30.31 1027 10 16.0934 0 0
3:52 am 03:52 Clear 27 -2.8 22 -5.6 81 81 NNW 5 7 30.32 1027 9 14.48406 0 0
4:52 am 04:52 Clear 24 -4.4 21 -6.1 88 88 NW 5 7 30.35 1028 7 11.26538 0 0
5:52 am 05:52 Clear 27 -2.8 23 -5 85 85 NNW 6 9 30.35 1028 7 11.26538 0 0
6:52 am 06:52 Mostly Clear 26 -3.3 23 -5 88 88 N 5 7 30.36 1028 10 16.0934 0 0
7:52 am 07:52 Mostly Sunny 25 -3.9 21 -6.1 85 85 N 3 6 30.36 1028 10 16.0934 0 0
8:52 am 08:52 Mostly Sunny 29 -1.7 23 -5 78 78 N 7 11 30.37 1029 10 16.0934 0 0
9:52 am 09:52 Mostly Cloudy 28 -2.2 23 -5 81 81 NNW 13 20 30.38 1029 10 16.0934 0 0
10:13 am 10:13 Mostly Sunny 30 -1.1 22 -5.6 72 72 NNW 10 17 30.41 1030 10 16.0934 0 0
10:52 am 10:52 Mostly Sunny 32 0 23 -5 69 69 N 8 13 30.38 1029 10 16.0934 0 0
11:52 am 11:52 Sunny 34 1.1 24 -4.4 67 67 NNW 6 9 30.36 1028 10 16.0934 0 0
12:52 pm 12:52 Sunny 37 2.8 24 -4.4 59 59 NW 6 9 30.34 1027 10 16.0934 0 0
1:52 pm 13:52 Sunny 41 5 24 -4.4 51 51 VRB 6 9 30.33 1027 10 16.0934 0 0
2:52 pm 14:52 Sunny 42 5.6 24 -4.4 49 49 NNE 6 9 30.32 1027 10 16.0934 0 0
3:52 pm 15:52 Sunny 43 6.1 24 -4.4 47 47 NNW 7 11 30.32 1027 10 16.0934 0 0
4:52 pm 16:52 Sunny 42 5.6 24 -4.4 49 49 VRB 3 6 30.32 1027 10 16.0934 0 0
5:52 pm 17:52 Clear 39 3.9 24 -4.4 55 55 N 7 11 30.32 1027 10 16.0934 0 0
6:52 pm 18:52 Clear 38 3.3 25 -3.9 60 60 N 7 11 30.32 1027 10 16.0934 0 0
7:52 pm 19:52 Clear 36 2.2 26 -3.3 67 67 NNW 7 11 30.32 1027 10 16.0934 0 0
8:52 pm 20:52 Clear 36 2.2 26 -3.3 67 67 N 9 15 30.33 1027 9 14.48406 0 0
9:52 pm 21:52 Clear 35 1.7 26 -3.3 70 70 NNE 12 19 30.34 1028 9 14.48406 0 0
10:52 pm 22:52 Clear 34 1.1 26 -3.3 73 73 NNE 9 15 30.35 1028 8 12.87472 0 0
11:52 pm 23:52 Clear 33 0.6 25 -3.9 72 72 NE 13 20 30.36 1028 10 16.0934 0 0

Powered by AerisWeather